Location: Leiter
(44.7178°N, 106.2687°W)
Time: 13:32:12
(UTC+00:00)

ESTCUBE 1 - Pass Details

Date: 26 June 2022
Orbit: 645 x 657 km, 97.9° (Epoch: 18 August)

Event Time Altitude Azimuth Distance (km) Brightness Sun altitude
Exits shadow 04:37:46 21° 130° (SE) 1,458 ? -13.8°
Maximum altitude 04:40:21 42° 70° (ENE) 932 ? -14.0°
Drops below altitude 10° 04:44:34 10° 1° (N) 2,057 ? -14.5°
Sets 04:46:52 0° 354° (N) 2,973 ? -14.7°
